Simultaneous Nadir Overpasses (SNOs) Predictions

Prediction of SNOs over PacNW region [( 10.00, 139.50) to ( 22.70, 165.60)] between AQUA and NPP Satellites:

Table of predicted SNOs over PacNW region for the next 30.0 days since TLE Epoch: 10/2/2021
Index Date (AQUA) Time (AQUA) AQUA Lat,Lon Date (NPP) Time (NPP) NPP Lat,Lon Distance(km) Time Diff (sec)
1 10/02/2021 15:59:21 22.64, 147.48 10/02/2021 16:02:37 23.31, 144.46 318.26 196
2 10/10/2021 15:09:55 22.62, 159.85 10/10/2021 15:11:56 23.21, 157.13 286.02 121
3 10/13/2021 03:31:44 22.68, 147.52 10/13/2021 03:28:14 22.83, 145.60 197.48 210
4 10/18/2021 15:59:19 22.61, 147.50 10/18/2021 16:02:41 23.26, 144.46 319.45 202
5 10/21/2021 02:42:15 22.68, 159.90 10/21/2021 02:38:45 27.19, 157.17 571.47 210
6 10/26/2021 15:09:48 22.58, 159.88 10/26/2021 15:11:57 23.22, 157.15 288.49 129
7 10/29/2021 03:31:36 22.69, 147.56 10/29/2021 03:28:07 22.34, 145.75 191.03 209
